Regional Weather Roundup
Issued by NWS Little Rock, AR

Home | Current Version | Previous Version | Text Only | Print | Product List | Glossary Off
Versions: 1 2 3 4 5 6 7 8 9 10 11 12 13 14 15 16 17 18 19 20 21 22 23 24 25 26 27 28 29 30 31 32 33 34 35 36 37 38 39 40 41 42 43 44 45 46 47 48 49 50

433
ASUS44 KLZK 220612
RWRLZK

WEATHER ROUNDUP FOR ARKANSAS
NATIONAL WEATHER SERVICE LITTLE ROCK AR
1200 AM CST MON JAN 22 2018

NOTE: "FAIR" INDICATES FEW OR NO CLOUDS BELOW 12,000 FEET WITH NO
SIGNIFICANT WEATHER AND/OR OBSTRUCTIONS TO VISIBILITY.

ARZ001-003-010-029-220700-
NORTHWEST ARKANSAS

CITY           SKY/WX    TMP DP  RH WIND       PRES   REMARKS
FAYETTEVILLE   CLOUDY    50  47  89 S13       29.69R
6HR MIN TEMP:  50; 6HR MAX TEMP:  62; 6HR PCP:  1.07;

FORT SMITH     CLOUDY    53  50  89 W5        29.69F
6HR MIN TEMP:  53; 6HR MAX TEMP:  64; 6HR PCP:  1.00;

HARRISON       HVY RAIN  57  55  93 S7        29.65F FOG
6HR MIN TEMP:  56; 6HR MAX TEMP:  62; 6HR PCP:  1.58;

BENTONVILLE    CLOUDY    53  51  93 S8        29.68R
6HR MIN TEMP:  53; 6HR MAX TEMP:  61; 6HR PCP:  0.85;

ROGERS         CLOUDY    53  51  93 S13       29.67R
6HR MIN TEMP:  53; 6HR MAX TEMP:  61; 6HR PCP:  0.92;

SILOAM SPGS    CLOUDY    57  51  80 SW13      29.67R
6HR MIN TEMP:  54; 6HR MAX TEMP:  62; 6HR PCP:  0.99;

HIGHFILL       CLOUDY    55  54  96 SW9       29.66R
6HR MIN TEMP:  54; 6HR MAX TEMP:  61; 6HR PCP:  0.86;

$$

ARZ004-005-016-220700-
NORTH CENTRAL ARKANSAS

CITY           SKY/WX    TMP DP  RH WIND       PRES   REMARKS
BATESVILLE     CLOUDY    64  58  80 S12G26    29.72F
6HR MIN TEMP:  61; 6HR MAX TEMP:  64;

FLIPPIN        RAIN      61  58  90 S7        29.65F
6HR MIN TEMP:  61; 6HR MAX TEMP:  65; 6HR PCP:  0.13;

MTN HOME       HVY RAIN  61  59  93 SW10G21   29.64F FOG
6HR MIN TEMP:  60; 6HR MAX TEMP:  63; 6HR PCP:  0.10;

$$

ARZ040-041-220700-
WEST CENTRAL ARKANSAS

CITY           SKY/WX    TMP DP  RH WIND       PRES   REMARKS
MENA           CLOUDY    55  54  94 W12       29.74R
MOUNT IDA      HVY RAIN  62  61  96 VRB7      29.68R FOG
6HR MIN TEMP:  62; 6HR MAX TEMP:  66; 6HR PCP:  0.60;

$$

ARZ009-017-025-026-028-220700-
NORTHEAST ARKANSAS

CITY           SKY/WX    TMP DP  RH WIND       PRES   REMARKS
JONESBORO      MOCLDY    59  56  89 S15       29.80F
6HR MIN TEMP:  58; 6HR MAX TEMP:  61; 6HR PCP: TRACE;

NEWPORT        FAIR      61  56  83 S21G29    29.76F
6HR MIN TEMP:  59; 6HR MAX TEMP:  61; 6HR PCP: TRACE;

WALNUT RIDGE   MOCLDY    60  55  83 S20       29.76F
6HR MIN TEMP:  56; 6HR MAX TEMP:  61; 6HR PCP: TRACE;

BLYTHEVILLE    FAIR      60  56  86 S16       29.86F
6HR MIN TEMP:  59; 6HR MAX TEMP:  62;

$$

ARZ022-023-033-042-044-220700-
CENTRAL ARKANSAS

CITY           SKY/WX    TMP DP  RH WIND       PRES   REMARKS
LITTLE ROCK    LGT RAIN  66  61  84 S21G33    29.73F
6HR MIN TEMP:  62; 6HR MAX TEMP:  66; 6HR PCP: TRACE;

N LITTLE ROCK    N/A     64  60  87 S14G26    29.65F
6HR MIN TEMP:  62; 6HR MAX TEMP:  65;

JACKSONVILLE   CLOUDY    64  60  88 SE9G21    29.72F
6HR MIN TEMP:  62; 6HR MAX TEMP:  64; 6HR PCP: TRACE;

SEARCY         CLOUDY    64  61  90 MISG        N/A
6HR MIN TEMP:  60; 6HR MAX TEMP:  64;

HOT SPRINGS    TSTM      65  62  90 S18G36    29.67F
6HR MIN TEMP:  64; 6HR MAX TEMP:  65; 6HR PCP:  0.03;

RUSSELLVILLE   RAIN      63  61  93 S8G18     29.65F
6HR MIN TEMP:  63; 6HR MAX TEMP:  67; 6HR PCP:  0.20;

CLINTON        CLOUDY    64  59  82 SE14G24   29.67F
$$

ARZ036-220700-
EAST ARKANSAS

CITY           SKY/WX    TMP DP  RH WIND       PRES   REMARKS
WEST MEMPHIS   LGT RAIN  60  56  86 S15       29.85F
6HR MIN TEMP:  59; 6HR MAX TEMP:  62; 6HR PCP:  0.01;

$$

ARZ050-053-066-070-073-220700-
SOUTHWEST ARKANSAS

CITY           SKY/WX    TMP DP  RH WIND       PRES   REMARKS
ARKADELPHIA    RAIN      65  62  90 S18G28    29.72F
6HR MIN TEMP:  63; 6HR MAX TEMP:  66; 6HR PCP:  0.02;

CAMDEN         CLOUDY    68  59  73 S13G25    29.76F
TEXARKANA      TSTM      64  63  96 W13       29.76S FOG
6HR MIN TEMP:  64; 6HR MAX TEMP:  67; 6HR PCP:  0.06;

EL DORADO      CLOUDY    67  63  87 S17G24    29.78F
6HR MIN TEMP:  63; 6HR MAX TEMP:  67;

DE QUEEN       CLOUDY    59  56  89 W10       29.75R
6HR MIN TEMP:  60; 6HR MAX TEMP:  68; 6HR PCP:  0.29;

$$

ARZ056-057-069-220700-
SOUTHEAST ARKANSAS

CITY           SKY/WX    TMP DP  RH WIND       PRES   REMARKS
PINE BLUFF     CLOUDY    65  59  81 S22G29    29.79F
6HR MIN TEMP:  63; 6HR MAX TEMP:  65; 6HR PCP: TRACE;

STUTTGART      CLOUDY    63  58  83 S28G33    29.80F
6HR MIN TEMP:  61; 6HR MAX TEMP:  64; 6HR PCP: TRACE;

MONTICELLO     CLOUDY    65  58  78 S15G30    29.83F
6HR MIN TEMP:  65; 6HR MAX TEMP:  67;


$$






USA.gov is the U.S. government's official web portal to all federal, state and local government web resources and services.